Temp
-13 -13 -13 -13 -13 -13 -13 -13 -13 -13 -13 -13 -13 -13 -13 -13 -13 -13 -13 -13 -13 -13 -13 -13 -13 -13 -13 -13 -13 -13 -13 -13 -13 -13 -13 -13 -13 -12 -12 -12 -12 -12
-13 -13 -13 -13 -13 -13 -13 -13 -13 -13 -13 -13 -13 -13 -13 -13 -13 -13 -13 -13 -13 -13 -13 -13 -13 -13 -13 -13 -13 -13 -13 -13 -13 -13 -13 -13 -13 -12 -12 -12 -12 -12
-13 -13 -13 -13 -13 -13 -13 -13 -13 -13 -14 -14 -14 -13 -13 -14 -13 -13 -13 -13 -13 -13 -13 -14 -14 -14 -13 -13 -13 -13 -13 -13 -13 -13 -13 -13 -13 -12 -12 -12 -12 -12
-13 -13 -13 -13 -13 -13 -13 -13 -13 -14 -14 -14 -14 -14 -14 -14 -14 -13 -13 -13 -13 -13 -14 -14 -14 -14 -14 -14 -14 -14 -13 -13 -13 -13 -13 -13 -13 -13 -12 -12 -12 -12
-13 -13 -13 -13 -13 -13 -13 -13 -13 -14 -14 -14 -14 -14 -14 -14 -14 -13 -13 -13 -13 -13 -14 -14 -14 -14 -14 -14 -14 -14 -14 -13 -13 -13 -13 -13 -13 -12 -12 -12 -12 -12
-13 -13 -13 -13 -13 -13 -13 -13 -14 -14 -14 -14 -14 -14 -14 -14 -14 -13 -13 -13 -13 -13 -13 -14 -14 -14 -14 -14 -14 -14 -14 -14 -13 -13 -13 -13 -13 -12 -12 -12 -12 -12
-13 -13 -13 -13 -13 -13 -13 -13 -14 -14 -14 -14 -14 -14 -14 -14 -14 -13 -13 -13 -13 -13 -13 -14 -14 -14 -14 -14 -14 -14 -13 -13 -13 -13 -13 -13 -13 -13 -13 -13 -13 -12
-13 -13 -13 -13 -13 -13 -13 -14 -14 -14 -14 -14 -14 -14 -14 -14 -14 -13 -13 -13 -13 -13 -13 -13 -14 -13 -13 -13 -13 -13 -13 -13 -13 -13 -13 -13 -13 -13 -13 -13 -12 -12
-14 -14 -13 -13 -13 -13 -13 -14 -14 -14 -14 -14 -14 -14 -14 -14 -14 -14 -13 -13 -13 -13 -13 -13 -13 -13 -13 -13 -13 -13 -13 -13 -13 -13 -13 -13 -13 -13 -13 -13 -12 -12
-14 -14 -14 -13 -13 -13 -13 -14 -14 -14 -14 -14 -14 -14 -14 -14 -14 -14 -14 -13 -13 -13 -13 -13 -13 -13 -13 -13 -13 -13 -13 -13 -13 -13 -13 -13 -13 -13 -13 -13 -12 -12
-14 -14 -14 -14 -14 -13 -13 -14 -14 -14 -14 -14 -14 -14 -14 -14 -14 -14 -14 -14 -13 -13 -13 -13 -13 -13 -13 -13 -13 -13 -13 -13 -13 -13 -13 -13 -13 -13 -13 -13 -13 -13
-14 -14 -14 -14 -14 -14 -14 -14 -14 -14 -15 -15 -15 -14 -14 -14 -14 -14 -14 -14 -14 -13 -13 -13 -13 -13 -13 -13 -13 -13 -13 -13 -13 -13 -13 -13 -13 -13 -13 -13 -13 -13
-14 -14 -14 -14 -14 -14 -14 -14 -14 -15 -15 -15 -15 -15 -15 -15 -15 -14 -14 -14 -14 -14 -14 -14 -14 -13 -13 -13 -13 -13 -13 -13 -13 -13 -13 -13 -13 -13 -13 -13 -13 -13
-14 -14 -14 -14 -14 -14 -14 -14 -15 -15 -15 -15 -15 -15 -15 -15 -15 -15 -15 -14 -14 -14 -14 -14 -14 -14 -13 -13 -13 -13 -13 -13 -14 -14 -14 -14 -13 -13 -13 -13 -13 -13
-14 -14 -14 -14 -14 -14 -15 -15 -15 -15 -15 -15 -15 -15 -15 -15 -15 -15 -15 -15 -15 -14 -14 -14 -14 -14 -14 -14 -14 -14 -14 -14 -14 -14 -14 -14 -14 -14 -14 -14 -13 -13
-14 -14 -14 -14 -15 -15 -15 -15 -15 -15 -15 -15 -15 -15 -15 -15 -15 -15 -15 -15 -15 -15 -15 -14 -14 -14 -14 -14 -14 -14 -14 -14 -14 -14 -14 -14 -14 -14 -14 -14 -14 -14
-15 -15 -15 -15 -15 -15 -15 -15 -15 -15 -15 -15 -15 -15 -15 -15 -15 -15 -15 -15 -15 -15 -15 -15 -15 -14 -14 -14 -14 -14 -14 -14 -14 -14 -14 -14 -14 -14 -14 -14 -14 -14
-15 -15 -15 -15 -15 -15 -15 -15 -15 -15 -15 -15 -15 -15 -15 -15 -15 -15 -15 -15 -15 -15 -15 -15 -15 -15 -14 -14 -14 -14 -14 -14 -14 -14 -14 -14 -14 -14 -14 -14 -14 -14
-15 -15 -16 -16 -16 -16 -15 -15 -15 -15 -15 -15 -16 -16 -16 -16 -16 -16 -16 -16 -16 -16 -16 -15 -15 -15 -15 -15 -14 -14 -14 -14 -14 -14 -14 -14 -14 -14 -14 -14 -14 -14
-16 -16 -16 -16 -16 -16 -16 -16 -16 -16 -16 -16 -16 -16 -16 -16 -16 -16 -16 -16 -16 -16 -16 -16 -16 -15 -15 -15 -15 -15 -15 -14 -14 -14 -14 -14 -14 -14 -14 -14 -14 -14
-16 -16 -16 -16 -16 -16 -16 -16 -16 -16 -16 -16 -16 -16 -16 -16 -16 -16 -16 -16 -16 -16 -16 -16 -16 -16 -16 -15 -15 -15 -15 -15 -15 -15 -15 -15 -15 -15 -15 -14 -14 -14
-16 -16 -16 -16 -16 -16 -16 -16 -16 -16 -16 -16 -16 -16 -16 -16 -16 -16 -16 -16 -16 -16 -16 -16 -16 -16 -16 -16 -16 -15 -15 -15 -15 -15 -15 -15 -15 -15 -15 -15 -15 -15
-17 -17 -17 -17 -17 -16 -16 -16 -16 -16 -16 -16 -16 -16 -16 -16 -16 -16 -16 -16 -16 -16 -16 -16 -16 -16 -16 -16 -16 -16 -16 -15 -15 -15 -15 -15 -15 -15 -15 -15 -15 -15
-17 -17 -17 -17 -17 -17 -17 -17 -17 -17 -16 -16 -16 -16 -16 -16 -16 -17 -17 -17 -17 -16 -16 -16 -16 -16 -16 -16 -16 -16 -16 -16 -16 -15 -15 -15 -15 -15 -15 -16 -16 -16
-17 -17 -17 -17 -17 -17 -17 -17 -17 -17 -17 -17 -16 -16 -16 -16 -16 -17 -17 -17 -17 -17 -17 -16 -16 -16 -16 -16 -16 -16 -16 -16 -16 -16 -16 -15 -15 -15 -15 -15 -16 -16
-17 -17 -17 -17 -17 -17 -17 -17 -17 -17 -17 -17 -17 -17 -17 -17 -17 -17 -17 -17 -17 -17 -17 -17 -17 -17 -17 -17 -17 -16 -16 -16 -16 -16 -16 -16 -16 -16 -16 -16 -16 -16
Height
5802 5801 5800 5799 5798 5797 5796 5795 5794 5792 5790 5788 5786 5783 5781 5779 5776 5772 5768 5764 5759 5753 5747 5742 5739 5736 5735 5735 5735 5736 5737 5739 5741 5741 5742 5744 5744 5745 5746 5747 5748 5748
5799 5798 5798 5797 5796 5795 5794 5793 5792 5790 5787 5785 5783 5781 5778 5776 5773 5769 5765 5761 5755 5749 5744 5740 5737 5735 5733 5732 5732 5733 5734 5735 5737 5738 5738 5739 5740 5742 5743 5744 5745 5745
5797 5796 5796 5795 5794 5793 5792 5791 5789 5787 5785 5783 5781 5779 5776 5774 5770 5767 5763 5758 5753 5747 5742 5739 5736 5734 5732 5731 5730 5731 5731 5732 5734 5735 5735 5736 5737 5738 5740 5741 5742 5742
5795 5794 5794 5793 5792 5791 5790 5788 5787 5785 5783 5781 5779 5777 5774 5771 5768 5765 5761 5757 5752 5746 5742 5739 5736 5734 5731 5730 5729 5729 5730 5730 5731 5732 5733 5734 5734 5736 5736 5737 5738 5738
5793 5792 5792 5791 5789 5788 5787 5786 5784 5783 5781 5779 5777 5775 5773 5770 5767 5763 5760 5756 5751 5746 5742 5739 5736 5734 5732 5730 5729 5728 5728 5728 5729 5730 5731 5732 5732 5733 5733 5734 5734 5735
5790 5790 5789 5788 5787 5786 5785 5783 5782 5780 5779 5777 5775 5774 5771 5768 5766 5762 5759 5755 5751 5746 5741 5738 5736 5734 5732 5730 5729 5728 5727 5727 5728 5728 5730 5730 5730 5731 5731 5731 5732 5732
5788 5787 5786 5786 5784 5783 5782 5781 5780 5778 5777 5775 5773 5772 5769 5767 5764 5761 5758 5754 5751 5746 5741 5738 5735 5734 5732 5730 5728 5727 5727 5727 5727 5728 5728 5728 5728 5728 5729 5730 5730 5730
5785 5785 5784 5783 5782 5781 5780 5779 5777 5776 5774 5773 5771 5770 5768 5765 5763 5760 5757 5754 5751 5747 5742 5738 5735 5733 5731 5729 5728 5727 5726 5726 5726 5726 5727 5726 5726 5727 5727 5728 5727 5726
5783 5782 5781 5780 5779 5778 5777 5776 5775 5774 5772 5771 5769 5768 5766 5764 5762 5759 5756 5753 5750 5747 5743 5739 5736 5733 5731 5729 5727 5726 5726 5725 5725 5725 5725 5724 5725 5725 5725 5725 5724 5723
5780 5779 5778 5777 5776 5775 5774 5773 5772 5771 5770 5768 5767 5765 5764 5762 5760 5757 5755 5752 5749 5746 5743 5739 5736 5732 5730 5728 5727 5726 5725 5724 5723 5723 5722 5722 5722 5723 5723 5722 5722 5722
5777 5776 5775 5774 5773 5773 5772 5771 5770 5768 5767 5766 5764 5763 5761 5760 5758 5756 5753 5750 5748 5745 5742 5739 5736 5732 5730 5727 5726 5725 5723 5723 5722 5721 5721 5721 5720 5720 5721 5721 5720 5720
5775 5774 5773 5772 5771 5770 5769 5768 5767 5766 5764 5763 5762 5760 5759 5758 5756 5754 5751 5749 5746 5744 5741 5739 5736 5733 5730 5727 5725 5724 5722 5721 5721 5720 5720 5719 5719 5719 5719 5719 5718 5718
5772 5771 5770 5769 5768 5767 5766 5765 5764 5763 5762 5760 5759 5758 5757 5755 5754 5752 5750 5747 5745 5743 5740 5738 5735 5733 5730 5728 5725 5723 5722 5721 5720 5720 5719 5718 5718 5717 5717 5717 5717 5716
5769 5768 5767 5766 5765 5764 5763 5762 5761 5760 5759 5758 5756 5755 5754 5753 5751 5749 5748 5745 5743 5741 5739 5737 5735 5732 5730 5728 5726 5724 5722 5721 5720 5719 5718 5717 5717 5716 5715 5715 5715 5715
5766 5765 5764 5763 5762 5761 5760 5759 5758 5757 5756 5755 5753 5752 5751 5750 5748 5747 5745 5743 5741 5739 5737 5736 5734 5731 5729 5727 5725 5724 5722 5721 5719 5718 5717 5716 5716 5715 5714 5713 5713 5713
5763 5762 5761 5760 5759 5758 5757 5756 5755 5754 5753 5752 5751 5749 5748 5747 5746 5744 5742 5741 5739 5737 5736 5734 5732 5730 5728 5726 5725 5723 5722 5720 5719 5717 5715 5714 5714 5714 5713 5712 5712 5712
5760 5759 5758 5757 5756 5755 5754 5753 5752 5751 5749 5748 5747 5746 5745 5744 5743 5742 5740 5738 5737 5735 5733 5732 5731 5729 5727 5726 5724 5722 5720 5719 5718 5716 5714 5713 5712 5712 5711 5711 5710 5710
5757 5756 5755 5754 5753 5752 5751 5750 5749 5748 5747 5745 5744 5743 5742 5741 5739 5738 5737 5736 5734 5733 5731 5729 5728 5727 5725 5724 5722 5721 5719 5717 5715 5714 5713 5712 5710 5710 5709 5709 5709 5708
5754 5753 5752 5751 5750 5749 5748 5747 5746 5745 5743 5742 5741 5740 5738 5737 5736 5735 5734 5733 5732 5730 5729 5727 5726 5724 5723 5721 5720 5719 5717 5715 5713 5712 5711 5710 5708 5707 5706 5706 5706 5706
5751 5750 5749 5748 5747 5746 5745 5744 5743 5741 5740 5739 5738 5736 5735 5734 5732 5731 5730 5729 5728 5727 5726 5724 5723 5722 5721 5719 5717 5716 5715 5713 5712 5710 5709 5708 5707 5705 5704 5703 5703 5703
5747 5746 5745 5745 5744 5742 5741 5740 5739 5738 5737 5736 5735 5733 5732 5730 5729 5728 5726 5725 5724 5723 5722 5721 5720 5719 5718 5717 5715 5714 5713 5712 5710 5709 5707 5706 5705 5704 5702 5701 5700 5700
5744 5743 5742 5741 5740 5739 5738 5737 5736 5735 5734 5733 5731 5730 5729 5727 5726 5724 5723 5722 5721 5720 5719 5718 5717 5716 5715 5714 5713 5711 5710 5709 5708 5707 5705 5704 5703 5701 5700 5699 5698 5697
5742 5741 5739 5738 5737 5736 5735 5734 5733 5732 5731 5729 5728 5727 5726 5724 5723 5721 5720 5719 5717 5716 5715 5714 5713 5712 5711 5711 5710 5709 5707 5706 5705 5704 5703 5701 5700 5699 5698 5697 5696 5695
5738 5738 5736 5735 5734 5733 5732 5731 5730 5728 5727 5726 5725 5723 5722 5721 5719 5718 5717 5715 5714 5712 5711 5710 5709 5708 5707 5706 5706 5705 5704 5703 5702 5701 5700 5699 5697 5696 5695 5694 5693 5692
5735 5734 5733 5732 5731 5730 5729 5727 5726 5725 5724 5722 5721 5720 5718 5717 5716 5714 5713 5712 5710 5709 5707 5706 5705 5704 5703 5702 5701 5700 5700 5699 5698 5697 5696 5695 5694 5693 5691 5690 5689 5689
5732 5731 5730 5729 5728 5727 5725 5724 5723 5721 5720 5718 5717 5716 5714 5713 5712 5710 5709 5708 5706 5705 5703 5702 5701 5700 5699 5698 5696 5696 5695 5694 5693 5692 5691 5690 5689 5688 5687 5686 5685 5684
Wind_Speed
22 23 23 23 24 24 24 23 23 23 23 24 26 27 29 31 33 36 39 42 45 46 41 36 32 29 27 28 30 31 31 30 28 29 29 27 25 24 24 24 23 22
22 23 24 24 24 24 24 24 23 23 24 25 26 28 30 32 33 36 38 42 45 43 37 32 29 25 22 22 24 26 27 26 25 25 26 26 24 23 23 22 22 22
23 24 24 24 25 25 25 24 23 23 24 25 27 28 30 31 33 35 38 41 44 41 33 28 26 22 19 18 18 20 21 22 22 22 24 25 24 23 21 22 21 21
24 24 25 25 25 25 26 24 23 23 24 25 27 28 29 31 32 34 37 39 42 39 30 24 22 20 17 16 15 15 17 19 19 20 22 23 23 21 21 22 21 21
24 25 25 26 26 26 26 25 23 23 24 25 26 27 28 30 31 33 35 37 39 38 30 22 20 18 16 14 12 12 13 15 17 19 20 20 20 20 21 21 21 22
25 25 26 26 27 27 27 25 24 24 24 25 26 27 27 29 31 32 34 35 37 37 32 24 20 18 16 13 11 9 10 11 14 17 18 19 20 21 22 23 22 22
25 26 27 27 27 27 27 26 24 24 24 25 26 26 26 28 30 31 32 33 34 36 33 26 20 18 17 14 12 10 10 11 13 15 17 19 21 21 21 23 26 26
26 27 27 27 28 28 28 26 25 25 25 26 26 26 26 26 28 29 30 32 32 33 33 29 22 18 17 16 13 11 10 10 12 14 16 19 20 21 21 22 25 27
27 28 28 28 28 28 28 27 26 26 26 26 26 26 25 25 27 28 29 30 31 31 31 31 26 20 17 16 14 11 10 10 11 12 15 17 18 20 22 24 24 21
28 29 29 29 29 29 28 27 27 26 27 27 27 26 26 25 26 27 29 30 31 31 31 31 29 24 19 17 15 12 11 11 12 13 14 15 17 18 21 23 24 21
29 30 30 29 29 29 28 28 27 27 27 28 27 27 26 26 26 27 29 29 30 31 30 29 29 27 22 19 16 14 13 12 13 14 15 16 16 16 18 19 20 20
31 31 31 30 30 29 28 28 28 27 28 28 28 27 27 27 27 27 28 29 30 30 29 28 28 27 24 21 18 16 14 13 13 14 15 16 16 16 17 17 15 15
32 32 32 31 30 29 29 28 28 28 28 28 28 28 27 28 28 27 28 28 29 29 28 27 26 25 24 22 20 18 16 15 14 14 15 16 17 17 18 16 14 13
32 33 32 32 31 30 29 29 29 29 29 29 28 28 28 28 29 28 28 28 28 28 28 27 26 25 24 22 21 19 17 15 15 16 16 16 16 17 18 17 15 15
33 33 33 32 31 30 29 29 29 30 29 29 29 28 28 28 29 29 28 28 28 27 27 27 26 25 24 22 21 19 17 16 15 16 17 16 16 15 15 16 16 16
33 33 32 31 31 30 30 30 30 31 30 30 29 29 29 29 29 30 29 29 28 27 27 26 25 24 23 22 21 19 18 16 15 15 16 17 17 16 15 14 15 15
33 33 32 31 31 31 31 31 31 31 31 30 30 30 30 30 30 30 30 30 29 29 28 27 26 25 23 22 21 20 19 17 16 15 15 15 16 17 17 16 15 14
32 32 31 31 30 30 30 31 31 31 31 31 31 32 32 32 32 32 31 31 29 28 28 28 27 26 25 24 22 21 20 19 18 16 15 14 15 16 18 18 17 15
31 30 30 29 29 29 30 30 31 31 32 32 32 33 33 34 34 34 33 32 31 29 27 27 26 26 25 25 24 22 22 21 20 18 17 15 14 15 17 19 19 18
29 29 28 28 28 29 29 30 31 32 32 33 33 34 34 35 35 35 34 33 32 30 28 27 26 25 24 24 24 23 22 21 21 20 19 17 15 15 16 18 21 22
28 28 28 28 29 29 30 30 31 32 32 33 33 34 34 34 35 35 34 33 32 31 29 27 26 25 23 23 23 23 22 21 21 21 20 19 18 16 16 17 20 23
28 28 28 29 29 29 30 30 31 31 32 32 33 33 33 33 33 33 33 33 32 30 29 28 27 26 24 22 22 22 22 22 22 21 21 20 20 19 18 17 18 20
28 28 29 29 29 29 29 30 30 31 31 32 32 33 33 33 33 32 32 32 31 30 29 29 28 27 26 24 23 22 23 23 23 23 22 22 22 21 20 19 18 18
29 29 29 29 30 30 30 30 31 32 32 33 33 34 34 34 33 33 32 32 31 31 31 30 30 29 28 27 25 24 24 24 24 25 25 24 24 24 23 23 22 20
28 29 29 30 30 31 31 32 33 33 34 34 35 35 35 35 34 33 32 32 32 32 32 32 31 30 29 28 27 26 26 26 26 27 27 27 27 27 27 27 26 25
28 28 29 29 30 31 32 33 34 34 35 35 36 36 36 35 35 34 33 33 33 33 32 32 31 30 29 29 28 27 27 27 28 28 29 29 29 29 29 29 30 30
Wind_Direction
292 296 297 298 299 302 305 305 308 313 322 327 327 327 328 329 331 331 332 332 331 328 323 316 311 304 291 276 268 266 265 264 262 260 261 258 253 251 252 257 262 260
292 294 294 295 298 302 304 304 309 318 326 328 327 328 329 330 331 333 334 336 335 333 327 320 315 309 300 286 276 272 268 263 259 258 260 259 253 249 249 254 261 262
291 291 292 294 297 301 303 305 312 323 327 327 328 330 330 331 333 335 337 339 340 338 331 323 321 315 305 295 285 277 269 262 257 257 259 259 254 249 247 252 258 261
289 290 292 294 297 300 303 308 316 323 326 326 329 331 331 332 335 336 338 341 343 342 334 325 325 322 312 302 289 278 270 264 258 256 257 256 252 250 250 251 253 253
289 291 293 294 297 302 305 310 316 322 324 325 329 332 331 333 336 337 339 342 345 346 339 327 325 325 321 314 300 283 274 265 255 254 256 254 250 250 250 250 251 250
289 291 293 295 298 302 305 310 315 320 323 324 328 332 332 334 337 338 341 344 347 349 345 335 327 326 324 320 315 303 285 270 256 252 253 251 248 249 249 248 247 247
290 291 293 295 297 301 304 309 315 319 322 324 327 331 333 334 337 340 343 346 348 351 350 343 332 330 329 320 313 308 296 279 264 256 252 251 250 252 253 252 250 247
290 291 292 294 296 299 302 308 314 318 321 323 325 329 332 334 336 340 344 348 349 350 352 349 339 331 330 326 317 308 298 285 271 263 260 259 259 260 260 263 266 256
290 291 291 293 295 298 301 306 313 317 319 322 324 327 330 332 334 337 342 346 348 350 351 352 349 338 329 329 328 312 292 284 278 272 271 273 272 270 266 271 282 278
291 290 291 293 295 297 300 305 312 317 319 320 322 324 327 330 332 334 338 342 346 349 350 352 353 350 340 333 332 320 298 287 284 279 277 279 279 278 277 277 282 285
291 291 291 292 293 296 299 305 311 316 318 319 320 322 324 328 330 333 336 340 344 348 350 350 351 353 349 340 332 324 312 299 292 288 283 279 278 278 279 282 282 280
291 290 290 291 292 295 299 305 311 315 317 318 319 320 322 325 329 331 334 339 343 346 348 349 349 351 352 347 338 329 319 308 301 298 292 282 278 275 272 271 273 273
290 290 290 290 292 295 299 305 309 313 315 316 317 318 320 323 327 330 333 337 341 344 346 347 347 348 350 349 345 337 326 314 303 298 295 286 278 276 276 274 270 268
290 289 289 290 292 296 300 304 308 310 313 314 315 317 319 321 325 329 333 336 339 342 344 345 345 344 345 347 346 342 333 321 308 296 291 286 280 277 277 278 277 274
289 289 290 291 293 297 300 303 306 308 311 312 314 315 317 320 323 326 330 334 337 340 341 343 343 342 342 342 343 343 338 329 316 303 294 288 283 280 277 277 276 272
289 289 290 291 294 297 300 302 305 307 309 310 312 313 315 318 321 324 328 332 334 336 338 339 340 339 338 337 337 338 337 332 325 314 303 294 286 280 277 277 275 270
290 290 291 293 295 297 299 302 304 306 308 309 310 312 313 316 319 322 326 329 331 333 334 335 336 336 335 333 332 331 330 330 329 324 315 303 292 284 279 276 274 273
291 292 293 295 297 298 300 301 303 305 306 308 309 310 312 314 317 320 322 325 328 330 331 332 332 332 331 330 329 327 326 326 325 325 323 314 301 290 283 278 274 271
292 294 295 297 298 300 301 301 303 304 305 307 309 310 312 314 316 318 319 321 323 326 327 328 329 328 327 326 326 325 323 323 322 321 320 318 309 297 287 281 277 274
294 296 297 299 299 300 301 302 303 304 305 307 309 310 312 313 314 315 317 318 320 322 324 325 325 324 323 322 321 321 320 319 318 317 315 314 309 300 291 283 277 277
297 298 299 300 301 301 302 303 304 305 306 307 308 310 311 312 313 314 315 316 318 319 321 322 321 321 320 318 316 315 315 314 312 311 310 309 306 301 294 285 277 274
298 299 301 302 303 303 304 304 305 305 306 307 308 309 310 311 312 312 313 314 315 316 317 318 317 317 316 314 311 308 308 307 306 305 304 303 302 300 296 291 285 278
296 299 300 302 303 303 304 305 305 305 306 307 308 309 310 310 310 311 311 312 313 314 314 314 314 313 312 310 307 304 302 301 300 299 297 296 296 296 295 293 291 287
296 297 299 300 301 302 302 303 303 304 305 306 307 308 308 309 309 309 309 310 311 311 311 311 310 310 309 307 304 301 298 296 294 293 292 291 290 289 289 288 287 287
295 296 297 298 299 300 300 301 301 302 303 304 306 307 308 308 308 308 308 309 309 309 309 308 307 306 305 304 302 299 295 292 290 289 288 287 286 284 283 282 281 280
294 295 296 297 298 299 299 300 301 302 303 304 306 307 308 308 308 308 309 309 309 308 307 306 306 305 303 302 299 296 293 289 286 284 283 282 281 280 280 279 278 277